Temperature
16 15 15 15 15 15 15 15 15 15 15 15 15 15 15 15 15 15 15 16 16 16 16 16 16 16 16 16 16 15 15 15 15 15 15 15 15 15 16 16 16 16 16
15 15 15 15 15 15 15 15 15 15 15 15 15 15 15 15 15 15 15 15 15 15 15 16 16 16 15 15 15 15 15 15 15 15 15 15 15 15 15 15 15 15 15
15 15 15 15 15 15 15 15 15 15 15 15 15 15 15 15 15 15 15 15 15 15 15 15 15 15 15 15 15 15 15 15 15 15 15 15 15 15 15 15 15 15 15
15 15 15 15 15 15 15 15 15 15 15 15 15 15 15 15 15 15 15 14 15 15 15 15 15 15 15 15 15 15 15 15 15 15 15 15 14 14 14 15 15 14 15
15 15 15 15 15 15 15 15 15 15 14 14 15 14 14 14 14 14 14 14 14 14 14 14 14 14 14 15 15 14 14 14 14 14 14 14 14 14 14 14 14 14 14
15 15 15 14 14 14 14 14 14 14 14 14 14 14 14 14 14 14 14 14 14 14 14 14 14 14 14 14 14 14 14 14 14 14 14 14 14 14 14 14 14 14 14
15 14 14 14 14 14 14 14 14 14 14 14 14 14 14 14 14 14 14 14 14 14 14 14 14 14 14 14 14 14 14 14 14 14 14 14 14 14 14 14 14 14 14
14 14 14 14 14 14 14 14 14 14 14 14 14 14 14 14 14 14 14 14 13 13 13 13 13 13 13 13 14 14 14 14 14 14 14 14 14 14 14 14 14 14 13
14 14 14 14 14 14 14 13 13 13 13 13 13 13 13 13 13 13 13 13 13 13 13 13 13 13 13 13 13 13 13 14 14 14 13 13 13 13 13 13 13 13 13
13 13 13 13 13 13 13 13 13 13 13 13 13 13 13 13 13 13 13 13 13 13 13 13 13 13 13 13 13 13 13 13 13 13 13 13 13 13 13 13 13 13 13
13 13 13 13 13 13 13 13 13 13 13 13 13 13 13 13 13 13 12 12 13 13 12 12 12 12 12 12 12 12 13 13 13 13 13 13 13 13 13 13 13 13 12
12 12 12 12 12 12 12 13 12 12 12 12 12 12 12 12 12 12 12 12 12 12 12 12 12 12 12 12 12 12 12 12 12 12 12 13 13 12 12 12 12 12 12
12 12 12 12 12 12 12 12 12 12 12 12 12 12 12 12 12 12 12 12 12 12 12 12 12 12 12 12 12 12 12 12 12 12 12 12 12 12 12 12 12 12 12
12 12 12 12 12 12 12 12 12 11 11 11 12 12 12 12 12 12 12 12 11 11 11 11 11 11 11 11 11 11 11 11 12 12 12 12 12 12 12 12 12 12 12
11 11 11 11 11 11 11 11 11 11 11 11 11 11 11 11 11 11 11 11 11 11 11 11 11 11 11 11 11 11 11 11 11 11 11 11 12 12 12 12 12 12 12
11 11 11 11 11 11 11 11 11 11 11 11 11 11 11 11 11 11 11 11 11 11 10 11 11 11 11 11 11 11 11 11 11 11 11 11 11 11 11 11 11 11 11
11 11 11 11 11 11 11 11 11 11 11 11 11 11 11 11 11 11 11 11 11 11 11 10 10 10 10 10 10 11 11 11 11 11 11 11 11 11 11 11 11 11 11
11 11 11 10 10 10 10 10 10 10 10 10 10 10 10 10 10 10 10 10 10 10 10 10 10 10 10 10 10 10 10 10 10 10 10 10 10 10 10 10 11 11 11
10 10 10 10 10 10 10 10 10 10 10 10 10 10 10 10 10 10 10 10 10 10 10 10 10 10 10 10 10 10 10 10 10 10 10 10 10 10 10 10 10 10 10
10 10 10 10 10 10 10 10 10 10 10 10 10 10 10 10 10 10 10 10 10 10 10 9 9 9 9 9 9 9 9 9 9 10 9 10 10 10 10 10 10 10 10
9 9 9 9 9 9 10 10 10 10 9 9 9 10 10 10 10 10 10 10 10 9 9 9 9 9 9 9 9 9 9 9 9 9 9 9 9 9 9 9 10 10 10
9 9 9 9 9 9 9 9 9 9 9 9 9 9 9 9 9 9 9 9 9 9 9 9 9 9 9 9 9 9 9 9 8 9 9 9 9 9 9 9 9 9 9
9 9 9 9 9 9 9 9 9 9 9 9 9 9 9 9 9 9 9 9 9 9 9 9 8 8 9 9 9 9 8 8 8 8 8 8 8 8 9 9 9 9 9
9 9 9 9 9 9 9 9 9 9 8 8 8 8 8 8 9 9 9 9 9 8 8 8 8 8 8 8 8 8 8 8 8 8 8 8 8 8 8 9 9 8 8
8 8 8 8 8 8 8 8 8 8 8 8 8 8 8 8 8 8 8 8 8 8 8 8 8 8 8 8 8 8 8 7 8 8 7 7 7 8 8 8 8 8 8
8 8 8 8 8 8 8 8 8 8 7 7 7 7 7 7 8 8 8 8 8 8 8 8 8 8 7 7 7 7 7 7 7 7 7 7 7 7 7 8 8 8 8
Wind_Speed
1 1 2 3 3 3 2 2 3 4 4 4 5 6 5 6 6 6 7 8 8 7 7 7 6 6 6 7 6 7 7 7 6 6 6 6 6 6 7 6 6 7 7
2 2 2 2 2 3 3 3 3 3 3 4 4 5 5 5 6 6 7 7 7 7 7 6 6 6 6 6 6 6 6 6 5 5 5 5 5 5 5 6 6 7 7
4 3 2 2 2 3 4 4 4 4 3 3 4 4 4 4 5 5 5 6 6 6 7 7 6 6 6 6 6 6 6 5 5 5 5 4 4 4 4 5 5 6 6
5 4 3 2 3 4 3 3 3 3 3 4 3 3 3 3 4 4 5 5 5 5 6 6 6 6 6 5 5 5 6 5 5 5 5 4 3 3 3 4 5 5 5
5 4 2 2 4 3 3 2 3 2 3 2 1 1 2 3 3 4 4 4 5 5 6 5 6 5 5 5 4 4 5 4 4 4 4 3 3 2 2 3 4 4 4
5 4 2 2 3 3 2 3 3 3 2 1 2 3 2 2 2 3 3 4 5 5 5 5 4 4 4 4 4 4 4 4 4 4 3 2 2 1 2 3 4 4 4
6 4 2 2 3 2 2 2 2 2 1 1 2 2 2 2 2 2 2 3 3 5 5 4 4 4 4 4 4 4 4 3 3 3 3 2 2 2 3 4 5 5 4
6 4 3 2 2 2 2 2 2 1 1 1 1 1 1 2 3 2 2 2 2 3 4 4 5 5 5 5 5 5 5 4 3 3 3 2 2 3 4 5 6 5 5
4 3 3 2 2 2 1 1 2 1 0 1 1 1 1 0 1 2 1 2 2 2 2 4 5 5 6 6 5 4 4 4 4 3 3 3 3 3 4 6 6 6 5
4 4 3 3 2 2 1 1 2 1 1 1 2 2 1 1 1 1 2 1 1 1 2 3 4 5 7 6 6 5 5 4 4 4 4 4 4 4 5 6 7 6 6
3 4 4 3 2 2 2 2 2 1 1 1 1 1 1 1 1 1 1 2 2 1 1 2 3 5 6 6 5 5 5 4 4 4 5 5 4 4 5 6 6 6 6
2 3 3 3 2 2 2 1 1 1 0 1 1 1 1 1 1 0 0 1 1 1 1 1 2 4 5 5 5 5 5 5 5 5 5 5 4 4 5 5 5 5 5
1 2 2 1 2 1 1 1 1 1 0 0 0 1 1 0 0 0 0 0 1 1 1 1 2 3 3 4 4 5 5 4 4 4 4 4 4 4 4 4 4 4 4
1 1 1 1 2 2 1 1 1 1 1 1 1 1 1 1 1 1 0 0 1 1 1 0 1 3 3 4 3 3 3 3 3 3 3 3 3 3 3 3 3 3 3
1 2 1 1 1 1 1 1 1 1 1 1 1 1 1 1 1 1 1 1 1 0 1 1 1 1 2 2 2 2 3 3 3 3 3 3 3 3 3 2 3 3 3
2 1 1 1 1 1 1 1 1 1 1 0 0 0 0 0 1 1 0 1 0 1 1 1 1 1 1 2 2 2 1 3 3 3 3 3 4 3 2 2 3 3 3
1 1 1 1 1 1 1 1 1 1 1 1 1 0 0 0 0 0 0 0 1 1 1 1 1 1 1 1 1 1 1 2 3 4 4 4 4 4 3 2 3 3 3
1 1 1 2 1 1 1 1 1 0 0 1 1 0 1 1 1 0 0 1 0 0 1 1 1 2 2 1 1 1 1 0 1 3 4 4 4 4 4 3 3 3 3
1 1 1 1 1 1 1 0 0 1 1 0 0 1 1 1 1 1 1 1 0 0 0 1 1 1 2 1 1 1 1 1 1 0 3 3 3 3 3 3 4 4 3
0 1 1 2 1 1 1 1 1 1 1 1 1 0 1 1 1 1 1 1 0 0 0 0 1 1 1 1 1 1 1 1 1 1 1 2 2 3 4 4 4 4 4
0 0 1 2 2 1 1 2 2 2 1 2 1 0 1 1 1 0 1 1 0 0 1 1 1 1 1 1 1 1 1 1 1 0 0 1 2 2 3 4 5 6 6
1 1 0 0 2 2 2 3 3 2 2 2 1 1 0 1 0 1 2 1 1 1 1 1 1 1 2 1 1 1 0 1 2 1 0 1 2 2 3 3 5 6 6
1 1 1 0 0 0 2 3 4 3 2 1 1 1 1 1 1 1 1 2 2 3 3 2 2 3 2 2 1 1 1 1 3 2 1 2 1 2 2 3 5 6 6
2 2 1 1 1 1 2 3 4 3 3 2 1 1 0 0 1 2 1 1 1 1 1 2 2 3 2 2 2 2 2 2 2 1 1 1 1 1 2 3 5 6 6
2 2 1 1 1 1 2 3 4 2 2 2 2 0 1 1 1 2 1 1 2 2 2 2 3 3 3 2 2 1 1 0 1 2 1 1 1 2 2 2 3 4 5
2 2 2 2 1 1 2 3 3 1 2 2 2 1 1 1 1 2 0 0 1 2 2 2 2 3 2 2 3 3 3 2 1 2 1 1 1 1 2 2 2 2 4
Wind_Direction
78 102 88 87 87 88 73 47 48 49 44 53 56 55 58 72 80 88 93 90 89 85 83 83 82 85 82 85 82 82 83 81 78 76 80 84 87 85 80 78 77 80 82
57 69 75 77 68 66 68 71 63 51 46 47 45 45 47 65 75 89 104 99 92 88 86 85 81 82 82 83 84 83 80 82 85 83 82 86 89 89 87 88 85 82 83
57 58 56 58 66 53 55 61 55 51 46 49 47 40 40 51 70 76 83 102 100 89 84 83 84 81 81 84 89 89 86 84 84 83 81 85 92 97 95 97 95 90 87
63 58 51 46 62 70 63 62 55 46 38 41 34 26 35 45 58 74 79 88 98 96 91 88 88 82 81 81 83 88 87 82 83 83 79 75 81 92 99 105 106 104 96
58 69 56 49 53 60 56 65 67 60 54 43 31 42 46 47 40 54 59 73 84 98 103 93 93 87 81 76 78 82 82 79 80 81 76 72 76 86 107 117 118 118 112
54 72 77 59 66 67 54 62 72 58 58 22 26 48 52 52 56 56 50 51 59 70 83 92 102 95 86 81 76 76 74 73 78 77 68 69 75 103 126 136 131 128 130
37 49 63 60 70 73 74 72 78 80 59 44 48 25 24 56 71 72 62 50 43 52 65 71 81 84 91 82 64 64 67 66 68 70 56 52 61 98 135 139 136 130 132
37 38 51 46 54 63 63 72 81 62 15 36 81 53 7 13 11 52 60 66 44 43 50 57 68 73 83 87 73 65 61 57 58 54 45 55 80 98 122 135 140 131 120
45 46 49 56 42 59 90 96 96 100 31 324 6 99 118 59 328 352 33 64 70 38 36 54 60 58 74 84 86 78 65 58 54 51 52 55 76 100 114 128 135 129 119
38 35 46 55 53 34 64 70 79 76 72 330 342 5 53 122 118 333 334 12 45 43 42 53 58 66 78 75 75 80 75 65 59 57 64 63 74 92 110 118 122 120 119
35 37 37 46 50 41 50 55 69 61 42 29 348 352 17 24 43 128 306 336 353 357 60 62 67 68 76 76 74 83 79 75 74 73 73 73 78 91 103 114 120 115 118
35 47 44 31 34 40 40 47 55 74 57 34 1 358 44 42 313 0 220 296 319 311 14 61 69 71 74 74 66 81 92 87 85 80 76 78 82 97 107 111 119 120 119
39 36 41 22 14 27 41 47 41 46 56 89 347 341 360 354 323 36 91 276 294 290 14 48 90 94 90 95 86 93 99 94 92 88 88 90 92 96 106 111 118 121 120
52 32 19 22 14 16 42 54 26 17 41 23 10 39 7 344 25 52 91 79 350 334 351 305 45 84 91 104 107 120 117 114 109 107 109 111 109 110 111 114 120 121 118
27 32 8 12 12 356 29 98 81 10 60 38 13 30 15 343 1 357 29 95 131 325 304 294 351 51 86 108 126 127 133 145 135 129 126 131 132 129 130 134 140 133 129
32 3 2 7 353 351 16 56 98 84 73 329 213 176 306 349 338 351 2 349 7 163 247 307 323 323 60 73 130 131 127 162 161 158 160 160 158 148 148 167 163 156 150
69 23 360 348 349 8 360 58 48 69 86 302 291 183 139 333 306 303 312 323 333 84 159 298 330 339 27 46 81 82 61 140 168 173 166 169 171 169 169 167 162 162 171
19 16 5 4 2 359 355 66 357 4 195 257 289 262 223 242 226 264 279 240 233 270 146 246 305 335 335 322 89 76 40 63 142 183 175 178 183 182 181 181 176 169 170
354 352 6 0 338 332 1 57 335 309 312 280 326 307 264 208 233 267 264 283 231 324 109 182 271 308 316 332 41 15 30 45 20 147 175 190 193 187 192 192 189 187 186
15 339 350 337 330 331 9 349 343 320 328 295 248 206 250 179 181 250 271 300 311 10 36 147 260 290 294 305 29 332 339 1 344 340 176 198 202 207 212 205 205 207 208
281 270 335 330 330 334 358 1 347 317 314 301 268 196 116 105 89 262 263 255 262 251 224 201 242 295 303 283 259 251 278 299 317 302 112 174 163 185 214 215 215 214 215
253 277 241 328 337 344 359 2 345 321 310 309 324 332 173 109 41 320 312 283 227 224 220 208 236 233 255 272 287 278 294 338 296 282 179 251 193 200 204 205 214 214 217
217 263 276 242 313 25 331 340 339 330 309 290 301 293 304 6 39 350 354 345 301 264 227 209 223 241 238 241 245 302 285 250 258 252 228 260 243 233 206 227 225 214 215
211 211 232 231 211 257 299 320 322 310 295 273 247 244 141 91 11 20 354 325 301 304 263 233 223 239 244 211 204 225 245 267 289 274 181 248 260 253 251 225 216 209 218
214 217 205 218 222 270 299 308 318 292 294 288 265 256 85 102 34 23 21 318 305 306 304 282 268 250 262 260 219 192 258 255 291 281 245 208 266 283 259 229 216 217 219
209 222 221 219 207 186 275 298 310 289 291 302 316 8 23 39 21 29 3 280 286 299 318 318 303 285 258 244 236 197 197 209 251 271 243 202 256 287 290 262 207 239 237
Height
1527 1527 1527 1528 1528 1528 1528 1528 1528 1529 1529 1530 1530 1530 1530 1530 1530 1530 1530 1530 1530 1530 1530 1530 1530 1530 1530 1531 1531 1531 1532 1533 1533 1533 1534 1534 1535 1535 1535 1536 1536 1536 1537
1527 1527 1528 1528 1528 1528 1529 1529 1529 1530 1530 1530 1530 1530 1530 1531 1531 1530 1530 1530 1530 1530 1530 1530 1530 1531 1531 1531 1531 1531 1532 1532 1533 1533 1533 1534 1534 1534 1534 1535 1536 1536 1537
1527 1527 1528 1528 1528 1529 1529 1529 1530 1530 1530 1531 1530 1530 1531 1531 1531 1531 1531 1530 1530 1530 1530 1530 1531 1531 1531 1531 1531 1531 1531 1532 1532 1532 1532 1532 1533 1533 1533 1534 1535 1535 1536
1527 1527 1527 1528 1528 1529 1529 1529 1530 1530 1530 1531 1531 1531 1531 1531 1531 1531 1531 1531 1531 1531 1531 1531 1531 1531 1530 1531 1531 1531 1531 1531 1531 1531 1531 1531 1531 1531 1532 1533 1534 1535 1536
1526 1527 1527 1528 1528 1528 1529 1529 1529 1530 1530 1531 1531 1531 1531 1531 1531 1531 1531 1531 1531 1531 1531 1531 1531 1531 1530 1530 1530 1530 1530 1530 1530 1530 1529 1529 1528 1528 1529 1530 1532 1533 1535
1526 1526 1527 1527 1528 1528 1528 1529 1529 1530 1530 1530 1531 1531 1531 1531 1531 1531 1531 1532 1532 1531 1531 1531 1530 1530 1530 1530 1530 1530 1529 1529 1529 1528 1527 1526 1525 1524 1525 1527 1529 1531 1533
1525 1526 1526 1527 1527 1527 1528 1528 1529 1529 1530 1530 1531 1530 1531 1531 1531 1531 1532 1532 1532 1531 1531 1531 1530 1530 1530 1529 1529 1529 1528 1528 1527 1526 1525 1523 1522 1522 1522 1524 1527 1529 1532
1524 1525 1525 1526 1526 1527 1527 1528 1528 1529 1530 1530 1531 1530 1531 1532 1532 1532 1532 1532 1532 1531 1531 1531 1530 1530 1529 1529 1528 1528 1527 1527 1526 1525 1524 1522 1521 1520 1521 1522 1525 1529 1531
1524 1524 1525 1525 1525 1526 1527 1528 1528 1528 1529 1530 1530 1531 1531 1531 1531 1532 1532 1532 1532 1531 1531 1531 1530 1529 1529 1528 1527 1527 1526 1525 1525 1524 1523 1521 1520 1520 1521 1522 1525 1528 1530
1523 1523 1524 1524 1525 1525 1526 1527 1527 1528 1528 1529 1530 1530 1531 1531 1531 1531 1532 1532 1531 1531 1530 1530 1529 1528 1528 1527 1526 1525 1525 1524 1524 1524 1523 1522 1521 1521 1522 1524 1526 1528 1530
1522 1522 1523 1524 1524 1525 1525 1526 1526 1527 1527 1528 1529 1529 1529 1530 1530 1531 1531 1531 1531 1531 1530 1529 1528 1528 1527 1526 1525 1524 1524 1524 1523 1523 1523 1523 1523 1523 1524 1525 1527 1529 1531
1521 1521 1522 1523 1523 1524 1524 1524 1525 1526 1526 1527 1527 1528 1529 1529 1529 1530 1529 1529 1529 1530 1529 1529 1528 1527 1526 1525 1524 1523 1523 1523 1523 1523 1523 1523 1523 1524 1525 1526 1527 1529 1530
1521 1521 1521 1521 1522 1522 1523 1523 1524 1524 1525 1526 1526 1527 1527 1528 1529 1529 1529 1528 1528 1529 1528 1528 1527 1527 1525 1524 1523 1523 1522 1522 1522 1522 1522 1523 1523 1524 1525 1526 1527 1528 1530
1520 1520 1520 1520 1521 1521 1522 1522 1522 1523 1523 1524 1525 1525 1526 1527 1527 1527 1528 1527 1527 1527 1527 1527 1527 1526 1525 1524 1523 1522 1522 1521 1521 1521 1522 1522 1523 1523 1524 1525 1526 1528 1529
1519 1519 1519 1519 1520 1520 1521 1521 1521 1521 1522 1522 1523 1524 1524 1525 1525 1526 1526 1527 1527 1526 1526 1526 1526 1525 1524 1523 1522 1521 1521 1521 1521 1521 1521 1522 1522 1523 1523 1524 1525 1526 1527
1518 1518 1518 1518 1518 1519 1519 1519 1520 1520 1520 1521 1521 1522 1522 1523 1523 1524 1525 1525 1525 1525 1525 1524 1524 1524 1523 1522 1521 1521 1520 1520 1520 1520 1520 1521 1521 1522 1522 1523 1524 1525 1526
1517 1517 1517 1517 1517 1517 1517 1518 1518 1518 1518 1519 1519 1520 1520 1521 1521 1522 1522 1523 1523 1523 1522 1522 1523 1522 1521 1521 1520 1520 1519 1519 1519 1519 1519 1519 1520 1520 1521 1522 1522 1523 1524
1516 1516 1516 1516 1516 1516 1516 1516 1516 1516 1516 1517 1517 1518 1518 1519 1519 1520 1520 1521 1521 1521 1521 1520 1520 1520 1520 1519 1519 1518 1518 1518 1517 1518 1518 1518 1519 1519 1519 1520 1521 1522 1522
1514 1514 1514 1514 1514 1514 1514 1514 1514 1514 1515 1515 1515 1515 1516 1516 1517 1517 1518 1518 1519 1519 1519 1519 1519 1519 1518 1518 1517 1517 1517 1516 1516 1517 1516 1517 1517 1517 1518 1519 1519 1520 1520
1512 1512 1512 1512 1512 1512 1512 1512 1512 1512 1512 1513 1513 1513 1514 1514 1514 1515 1515 1516 1516 1517 1517 1517 1517 1517 1517 1516 1516 1515 1514 1514 1514 1515 1515 1515 1515 1516 1517 1517 1517 1518 1518
1510 1510 1510 1510 1510 1510 1510 1510 1510 1510 1510 1510 1511 1511 1511 1511 1511 1512 1512 1513 1513 1514 1514 1514 1514 1514 1514 1514 1514 1513 1513 1512 1512 1513 1513 1513 1513 1514 1514 1515 1515 1516 1516
1508 1508 1508 1508 1508 1508 1508 1508 1508 1508 1508 1508 1508 1509 1509 1509 1509 1509 1509 1510 1510 1511 1511 1512 1512 1512 1512 1512 1512 1511 1511 1510 1510 1511 1511 1511 1511 1511 1512 1512 1513 1513 1513
1505 1505 1505 1505 1505 1505 1505 1506 1506 1506 1506 1506 1506 1506 1506 1506 1506 1506 1506 1507 1507 1508 1509 1509 1509 1509 1509 1509 1509 1509 1508 1508 1508 1508 1508 1508 1509 1508 1509 1509 1510 1511 1511
1502 1502 1502 1502 1502 1502 1503 1503 1503 1503 1503 1503 1503 1504 1504 1503 1503 1503 1503 1504 1504 1504 1505 1506 1506 1506 1506 1507 1506 1507 1506 1506 1506 1506 1506 1506 1506 1506 1506 1507 1507 1508 1508
1499 1499 1499 1500 1499 1499 1500 1500 1500 1500 1500 1500 1500 1501 1501 1501 1500 1500 1501 1501 1501 1501 1502 1502 1502 1503 1503 1503 1503 1504 1503 1503 1502 1503 1503 1503 1503 1503 1503 1504 1504 1505 1505
1496 1496 1496 1496 1496 1496 1496 1497 1497 1496 1496 1497 1497 1497 1497 1497 1497 1497 1497 1497 1497 1498 1498 1498 1499 1499 1499 1500 1500 1500 1500 1500 1500 1500 1500 1500 1500 1500 1500 1500 1501 1501 1502